This demonstration page uses our WeatherBlox Daily Observations layout. Learn more.

Left ArrowRight Arrow

36.17497, -115.13722

Hourly Observations for July 3, 2017

Temp ( °F °C ) Dew Point ( °F °C ) Humidity (%) Winds ( mph kmh ) Pressure ( in mb ) Visibility ( mi km ) Precip ( " mm )
12:53 am 00:53 Clear 90 32.2 18 -7.8 7 7 SW 10 17 29.87 1012 10 16 N/A
1:53 am 01:53 Clear 85 29.4 22 -5.6 10 10 S 6 9 29.88 1012 10 16 N/A
2:53 am 02:53 Clear 82 27.8 25 -3.9 12 12 NW 5 7 29.89 1012 10 16 N/A
3:53 am 03:53 Clear 80 26.7 27 -2.8 14 14 N N/A 29.90 1013 10 16 N/A
4:53 am 04:53 Clear 78 25.6 27 -2.8 15 15 WNW 3 6 29.91 1013 10 16 N/A
5:53 am 05:53 Sunny 76 24.4 27 -2.8 16 16 NNW 5 7 29.94 1014 10 16 N/A
6:53 am 06:53 Sunny 81 27.2 29 -1.7 15 15 NE 5 7 29.96 1015 10 16 N/A
7:53 am 07:53 Sunny 84 28.9 28 -2.2 13 13 ESE 5 7 29.98 1015 10 16 N/A
8:53 am 08:53 Sunny 89 31.7 27 -2.8 11 11 ENE 5 7 29.99 1016 10 16 N/A
9:53 am 09:53 Sunny 94 34.4 29 -1.7 10 10 ESE 8 13 29.98 1015 10 16 N/A
10:53 am 10:53 Sunny 97 36.1 28 -2.2 9 9 S 10 17 29.97 1015 10 16 N/A
11:53 am 11:53 Sunny 100 37.8 27 -2.8 7 7 S 12 19 29.96 1015 10 16 N/A
12:53 pm 12:53 Sunny 100 37.8 26 -3.3 7 7 undefined N/A 29.94 1014 10 16 N/A
1:53 pm 13:53 Sunny 102 38.9 21 -6.1 5 5 SW 10 17 29.92 1013 10 16 N/A
2:53 pm 14:53 Sunny 104 40 17 -8.3 4 4 SSE 12 19 29.89 1012 10 16 N/A
3:53 pm 15:53 Sunny 105 40.6 10 -12.2 3 3 SW 8 13 29.87 1011 10 16 N/A
4:53 pm 16:53 Sunny 104 40 5 -15 2 2 SSW 13 20 29.85 1011 10 16 N/A
5:53 pm 17:53 Sunny 103 39.4 -2 -18.9 2 2 S 9 15 29.83 1010 10 16 N/A
6:53 pm 18:53 Sunny 102 38.9 3 -16.1 2 2 SSW 10 17 29.83 1010 10 16 N/A
7:53 pm 19:53 Sunny 100 37.8 6 -14.4 3 3 SW 8 13 29.83 1010 10 16 N/A
8:53 pm 20:53 Clear 97 36.1 9 -12.8 4 4 SW 7 11 29.84 1011 10 16 N/A
9:53 pm 21:53 Clear 93 33.9 11 -11.7 5 5 S 7 11 29.85 1011 10 16 N/A
10:53 pm 22:53 Clear 90 32.2 17 -8.3 7 7 NW 6 9 29.86 1011 10 16 N/A
11:53 pm 23:53 Clear 85 29.4 18 -7.8 8 8 N N/A 29.87 1011 10 16 N/A

Powered by AerisWeather